When you browse on this site, cookies collect data to enhance your experience and personalize the content and advertising you see.
Visit our Privacy Policy to learn more. By continuing to use the site, you agree to this use of cookies and data.
  • In France
  • List of Countries
  • For 7 days
  • Water Temperature
  • Satellite Maps
  • Weather Map
  • Weather Widgets
  • user-avatar
    Login

    Hourly Weather Salta

    Today, 18 November, Sunday

    Time Temperature Precipitation Wind Pressure Humidity
    00:00 +23°C° 0.2 mm 1 mps 651 mmHg 75%
    01:00 +23°C° 0.2 mm 1 mps 651 mmHg 74%
    02:00 +23°C° 0.2 mm 2 mps 651 mmHg 74%
    03:00 +21°C° 0.1 mm 2 mps 651 mmHg 77%
    04:00 +21°C° 0.1 mm 2 mps 652 mmHg 81%
    05:00 +20°C° 0.1 mm 3 mps 652 mmHg 84%
    06:00 +20°C° 0.2 mm 3 mps 652 mmHg 82%
    07:00 +20°C° 0.2 mm 3 mps 653 mmHg 80%
    08:00 +21°C° 0.2 mm 4 mps 654 mmHg 78%
    09:00 +20°C° 0.2 mm 4 mps 654 mmHg 78%
    10:00 +20°C° 0.2 mm 4 mps 654 mmHg 78%
    11:00 +19°C° 0.2 mm 4 mps 654 mmHg 78%
    12:00 +19°C° 0.1 mm 3 mps 653 mmHg 78%
    13:00 +19°C° 0.1 mm 3 mps 653 mmHg 78%
    14:00 +18°C° 0.1 mm 3 mps 652 mmHg 79%
    15:00 +19°C° 0 mm 3 mps 652 mmHg 75%
    16:00 +19°C° 0 mm 3 mps 652 mmHg 71%
    17:00 +20°C° 0 mm 2 mps 651 mmHg 68%
    18:00 +19°C° 0 mm 2 mps 652 mmHg 70%
    19:00 +20°C° 0 mm 1 mps 652 mmHg 71%
    20:00 +19°C° 0 mm 1 mps 653 mmHg 73%
    21:00 +19°C° 0 mm 1 mps 653 mmHg 74%
    22:00 +18°C° 0 mm 1 mps 653 mmHg 75%
    23:00 +18°C° 0 mm 1 mps 653 mmHg 76%

    Tomorrow, 19 November, Monday

    Time Temperature Precipitation Wind Pressure Humidity
    00:00 +18°C° 0 mm 1 mps 653 mmHg 77%
    01:00 +16°C° 0 mm 1 mps 652 mmHg 78%
    02:00 +16°C° 0 mm 1 mps 651 mmHg 78%
    03:00 +16°C° 0 mm 1 mps 651 mmHg 79%
    04:00 +16°C° 0 mm 1 mps 651 mmHg 81%
    05:00 +15°C° 0 mm 1 mps 651 mmHg 82%
    06:00 +18°C° 0 mm 1 mps 652 mmHg 75%
    07:00 +20°C° 0 mm 1 mps 652 mmHg 68%
    08:00 +22°C° 0 mm 1 mps 653 mmHg 61%
    09:00 +24°C° 0 mm 2 mps 653 mmHg 56%
    10:00 +26°C° 0 mm 2 mps 653 mmHg 52%
    11:00 +27°C° 0 mm 3 mps 653 mmHg 48%
    12:00 +28°C° 0 mm 3 mps 652 mmHg 48%
    13:00 +28°C° 0 mm 4 mps 652 mmHg 48%
    14:00 +29°C° 0 mm 4 mps 651 mmHg 48%
    15:00 +28°C° 0 mm 4 mps 650 mmHg 50%
    16:00 +28°C° 0 mm 4 mps 650 mmHg 52%
    17:00 +27°C° 0 mm 4 mps 649 mmHg 54%
    18:00 +26°C° 0 mm 3 mps 650 mmHg 60%
    19:00 +24°C° 0 mm 2 mps 650 mmHg 66%
    20:00 +23°C° 0 mm 1 mps 650 mmHg 72%
    21:00 +22°C° 0 mm 1 mps 651 mmHg 74%
    22:00 +22°C° 0 mm 1 mps 651 mmHg 76%
    23:00 +21°C° 0 mm 1 mps 652 mmHg 78%

    Day after tomorrow, 20 November, Tuesday

    Time Temperature Precipitation Wind Pressure Humidity
    00:00 +21°C° 0 mm 1 mps 651 mmHg 79%
    01:00 +21°C° 0 mm 1 mps 651 mmHg 80%
    02:00 +20°C° 0 mm 1 mps 650 mmHg 82%
    03:00 +20°C° 0 mm 1 mps 650 mmHg 83%
    04:00 +19°C° 0 mm 1 mps 650 mmHg 84%
    05:00 +19°C° 0 mm 1 mps 650 mmHg 84%
    06:00 +21°C° 0 mm 1 mps 651 mmHg 77%
    07:00 +23°C° 0 mm 1 mps 652 mmHg 69%
    08:00 +24°C° 0 mm 2 mps 652 mmHg 61%
    09:00 +26°C° 0 mm 2 mps 653 mmHg 56%
    10:00 +28°C° 0 mm 2 mps 653 mmHg 51%
    11:00 +29°C° 0 mm 3 mps 653 mmHg 47%
    12:00 +30°C° 0.1 mm 3 mps 652 mmHg 46%
    13:00 +30°C° 0.1 mm 3 mps 652 mmHg 45%
    14:00 +32°C° 0.1 mm 4 mps 651 mmHg 45%
    15:00 +30°C° 0.1 mm 4 mps 651 mmHg 48%
    16:00 +29°C° 0.1 mm 4 mps 650 mmHg 50%
    17:00 +29°C° 0.1 mm 4 mps 650 mmHg 53%
    18:00 +27°C° 0 mm 3 mps 650 mmHg 59%
    19:00 +26°C° 0 mm 2 mps 650 mmHg 64%
    20:00 +24°C° 0 mm 1 mps 651 mmHg 69%
    21:00 +24°C° 0.1 mm 1 mps 651 mmHg 71%
    22:00 +24°C° 0.1 mm 1 mps 652 mmHg 73%
    23:00 +23°C° 0.1 mm 1 mps 652 mmHg 75%

    21 November, Wednesday

    Time Temperature Precipitation Wind Pressure Humidity
    00:00 +23°C° 0 mm 1 mps 651 mmHg 76%
    01:00 +22°C° 0 mm 1 mps 651 mmHg 77%
    02:00 +22°C° 0 mm 1 mps 650 mmHg 79%
    03:00 +21°C° 0 mm 1 mps 650 mmHg 79%
    04:00 +21°C° 0 mm 1 mps 650 mmHg 80%
    05:00 +21°C° 0 mm 1 mps 650 mmHg 81%
    06:00 +22°C° 0 mm 1 mps 651 mmHg 74%
    07:00 +24°C° 0 mm 1 mps 651 mmHg 67%
    08:00 +26°C° 0 mm 1 mps 652 mmHg 60%
    09:00 +28°C° 0.1 mm 2 mps 652 mmHg 54%
    10:00 +29°C° 0.1 mm 3 mps 652 mmHg 49%
    11:00 +31°C° 0.1 mm 3 mps 652 mmHg 44%
    12:00 +33°C° 0.2 mm 3 mps 651 mmHg 43%
    13:00 +33°C° 0.2 mm 4 mps 650 mmHg 42%
    14:00 +34°C° 0.2 mm 4 mps 650 mmHg 40%
    15:00 +33°C° 0.6 mm 4 mps 649 mmHg 42%
    16:00 +33°C° 0.6 mm 4 mps 648 mmHg 45%
    17:00 +32°C° 0.6 mm 4 mps 648 mmHg 47%
    18:00 +29°C° 0.2 mm 4 mps 648 mmHg 54%
    19:00 +28°C° 0.2 mm 3 mps 648 mmHg 61%
    20:00 +26°C° 0.2 mm 2 mps 649 mmHg 69%
    21:00 +25°C° 0.4 mm 2 mps 649 mmHg 71%
    22:00 +25°C° 0.4 mm 1 mps 649 mmHg 74%
    23:00 +24°C° 0.4 mm 1 mps 650 mmHg 77%

    22 November, Thursday

    Time Temperature Precipitation Wind Pressure Humidity
    00:00 +24°C° 0.8 mm 1 mps 649 mmHg 78%
    01:00 +23°C° 0.8 mm 1 mps 649 mmHg 79%
    02:00 +23°C° 0.8 mm 1 mps 648 mmHg 80%
    03:00 +23°C° 0.4 mm 1 mps 648 mmHg 81%
    04:00 +22°C° 0.4 mm 1 mps 648 mmHg 81%
    05:00 +22°C° 0.4 mm 1 mps 648 mmHg 82%
    06:00 +24°C° 0.3 mm 1 mps 649 mmHg 73%
    07:00 +25°C° 0.3 mm 1 mps 650 mmHg 65%
    08:00 +27°C° 0.3 mm 2 mps 651 mmHg 57%
    09:00 +29°C° 0.8 mm 2 mps 651 mmHg 52%
    10:00 +30°C° 0.8 mm 2 mps 651 mmHg 47%
    11:00 +33°C° 0.8 mm 3 mps 652 mmHg 42%
    12:00 +33°C° 0.6 mm 3 mps 651 mmHg 42%
    13:00 +34°C° 0.6 mm 3 mps 651 mmHg 41%
    14:00 +34°C° 0.6 mm 4 mps 651 mmHg 40%
    15:00 +32°C° 2.2 mm 4 mps 650 mmHg 48%
    16:00 +29°C° 2.2 mm 4 mps 650 mmHg 56%
    17:00 +27°C° 2.2 mm 4 mps 649 mmHg 64%
    18:00 +25°C° 3.7 mm 3 mps 650 mmHg 71%
    19:00 +24°C° 3.7 mm 3 mps 650 mmHg 77%
    20:00 +21°C° 3.7 mm 3 mps 651 mmHg 83%
    21:00 +21°C° 0.4 mm 3 mps 651 mmHg 84%
    22:00 +20°C° 0.4 mm 3 mps 652 mmHg 85%
    23:00 +20°C° 0.4 mm 3 mps 652 mmHg 86%

    23 November, Friday

    Time Temperature Precipitation Wind Pressure Humidity
    00:00 +19°C° 1.2 mm 2 mps 652 mmHg 87%
    01:00 +19°C° 1.2 mm 2 mps 652 mmHg 88%
    02:00 +20°C° 1.2 mm 1 mps 651 mmHg 89%
    03:00 +20°C° 1.1 mm 1 mps 651 mmHg 88%
    04:00 +20°C° 1.1 mm 1 mps 651 mmHg 87%
    05:00 +20°C° 1.1 mm 1 mps 651 mmHg 86%
    06:00 +20°C° 0.4 mm 1 mps 652 mmHg 83%
    07:00 +21°C° 0.4 mm 1 mps 652 mmHg 79%
    08:00 +20°C° 0.4 mm 2 mps 653 mmHg 75%
    09:00 +23°C° 0 mm 2 mps 653 mmHg 70%
    10:00 +25°C° 0 mm 2 mps 653 mmHg 64%
    11:00 +26°C° 0 mm 2 mps 653 mmHg 59%
    12:00 +27°C° 0.1 mm 3 mps 652 mmHg 57%
    13:00 +27°C° 0.1 mm 3 mps 651 mmHg 56%
    14:00 +27°C° 0.1 mm 3 mps 650 mmHg 54%
    15:00 +27°C° 0.2 mm 3 mps 650 mmHg 57%
    16:00 +26°C° 0.2 mm 3 mps 649 mmHg 60%
    17:00 +26°C° 0.2 mm 3 mps 649 mmHg 62%
    18:00 +24°C° 0.1 mm 2 mps 649 mmHg 68%
    19:00 +23°C° 0.1 mm 2 mps 649 mmHg 74%
    20:00 +21°C° 0.1 mm 2 mps 649 mmHg 80%
    21:00 +22°C° 0.1 mm 1 mps 650 mmHg 82%
    22:00 +21°C° 0.1 mm 1 mps 650 mmHg 85%
    23:00 +21°C° 0.1 mm 1 mps 650 mmHg 87%
    Show more